Regional Weather Roundup
Issued by NWS

Home | Current Version | Previous Version | Graphics & Text | Print | Product List | Glossary On
Versions: 1 2 3 4 5 6 7 8 9 10 11 12 13 14 15 16 17 18 19 20 21 22 23 24 25 26 27 28 29 30 31 32 33 34 35 36 37 38 39 40 41 42 43 44 45 46 47 48 49 50
000
ASUS45 KBOU 232307
RWRCO

WEATHER ROUNDUP FOR COLORADO
NATIONAL WEATHER SERVICE DENVER/BOULDER CO
500 PM MDT SAT MAY 23 2015

NOTE: "FAIR" INDICATES FEW OR NO CLOUDS BELOW 12000 FEET WITH NO
SIGNIFICANT WEATHER AND/OR OBSTRUCTIONS TO VISIBILITY.

COZ001>005-013-030-031-240000-
...NORTHWEST COLORADO...

CITY           SKY/WX    TMP DP  RH WIND       PRES   REMARKS
CRAIG          PTSUNNY   55  35  47 W12G17    29.95F
HAYDEN         CLOUDY    50  32  50 NE5       29.96F
MEEKER         CLOUDY    57  34  41 MISG      29.95S
MOUNT WERNER   NOT AVBL
STEAMBOAT SPGS PTSUNNY   47  38  70 W6        29.98F
WALDEN         CLOUDY    43  32  65 W12       30.00R
$$

COZ006>008-011-240000-
...WEST CENTRAL VALLEYS...

CITY           SKY/WX    TMP DP  RH WIND       PRES   REMARKS
GRAND JUNCTION LGT RAIN  50  42  74 N9        29.95F
MONTROSE       CLOUDY    50  37  61 NW12      30.00R
EAGLE          MOSUNNY   48  36  61 S21G26    30.00R
RIFLE          CLOUDY    58  35  42 SE6       29.95S
DELTA          TSTM      51  44  76 MISG      29.99R
NUCLA          CLOUDY    54  36  50 S16G22    30.02F THUNDER
$$

COZ017>023-064>068-240000-
...SOUTHWEST COLORADO...

CITY           SKY/WX    TMP DP  RH WIND       PRES   REMARKS
DURANGO        CLOUDY    56  29  35 W9        29.99F
CORTEZ         LGT RAIN  47  40  76 NW17G24   30.02S
PAGOSA SPRINGS CLOUDY    55  19  24 SW12G24   30.03S
TELLURIDE      TSTM      37  33  87 SE8G16    30.09R
WOLF CREEK PAS NOT AVBL
$$

COZ009-010-012-014-032>034-037-058>063-240000-
...CENTRAL COLORADO...

CITY           SKY/WX    TMP DP  RH WIND       PRES   REMARKS
ASPEN          TSTM      43  32  65 E7        30.02R
BUENA VISTA    DRIZZLE   42  33  71 W30G40    29.98R
COPPER MTN     SNOW      32  27  80 S15G35    30.12R VSB 1/4 WCI  22
BERTHOUD PASS  CLOUDY    28  19  69 W14       30.14S THUNDER WCI  17
COTTONWOOD PAS CLOUDY    37  32  81 NW9G21    30.05R
GUNNISON       PTSUNNY   50  25  37 W8G17     30.01R
KREMMLING      TSTM      41  32  70 NE8       29.98R
LEADVILLE      CLOUDY    36  28  73 S18G24    30.05R
SALIDA         CLOUDY    55  24  30 W6        30.01S
SUNLIGHT       CLOUDY    36  34  93 CALM      30.12F THUNDER
WILKERSON PASS MOSUNNY   41  23  48 SW6       30.10F
$$

COZ069>075-240000-
...SAN LUIS VALLEY/SANGRE DE CRISTO MOUNTAINS...

CITY           SKY/WX    TMP DP  RH WIND       PRES   REMARKS
ALAMOSA        MOSUNNY   58  22  24 W26G33    29.96S
LA VETA PASS   PTSUNNY  N/A N/A N/A MISG      30.06S
SAGUACHE       PTSUNNY   57  21  24 SW12G21   29.96F
$$

COZ035-036-038>040-240000-
...NORTHERN COLORADO FRONT RANGE...

CITY           SKY/WX    TMP DP  RH WIND       PRES   REMARKS
DENVER INTL AP LGT RAIN  51  45  79 W5        29.94R
DMNS CITY PARK   N/A     57  44  63 S6        29.89S
AURORA         PTSUNNY   49  47  92 NE18      29.87F
FRONT RANGE AP PTSUNNY   54  46  76 SW10      29.95R
ERIE MUNI ARPT CLOUDY    55  47  76 N8        29.92S
BOULDER MUN AP CLOUDY    55  46  71 N8        29.91S
CENTENNIAL     CLOUDY    52  43  71 E6        29.89F
BROOMFIELD     NOT AVBL
FORT COLLINS   PTSUNNY   55  48  76 N8        29.92F
LONGMONT       PTSUNNY   57  47  69 N7        29.94R
$$

COZ041-046-047-076>085-087-088-240000-
...PIKES PEAK/PALMER DIVIDE AND SOUTHERN FOOTHILLS...

CITY           SKY/WX    TMP DP  RH WIND       PRES   REMARKS
COLO. SPRINGS  PTSUNNY   57  42  57 SE9       29.92F THUNDER
A. F. ACADEMY  DRIZZLE   52  43  71 NW7       29.92F
ELLICOTT       NOT AVBL
FALCON         CLOUDY    52  41  66 SW15G21   29.99R
FORT CARSON    PTSUNNY   56  45  68 NW13      29.89F
LIMON          PTSUNNY   52  46  80 E16       29.91R
MONUMENT HILL  NOT AVBL
TRINIDAD       MOSUNNY   70  35  27 S18G24    29.82F
$$

COZ042>045-048>051-090-091-240000-
...NORTHEAST COLORADO...

CITY           SKY/WX    TMP DP  RH WIND       PRES   REMARKS
GREELEY ARPT   PTSUNNY   50  48  93 NE13      29.89F
AKRON          LGT RAIN  54  48  80 SW22G33   29.90R
BURLINGTON     CLOUDY    64  52  64 SE14      29.88F
WRAY           PTSUNNY   66  52  59 SE17      29.89F
STERLING       RAIN      52  48  87 W9        29.91R
HOLYOKE        NOT AVBL
FORT MORGAN    RAIN      51  47  88 N7        29.92F
$$

COZ086-089-092>099-240000-
...SOUTHEAST COLORADO...

CITY           SKY/WX    TMP DP  RH WIND       PRES   REMARKS
PUEBLO         MOSUNNY   66  48  52 E13       29.81F
LA JUNTA       PTSUNNY   63  54  72 NE21      29.79F
LAMAR          LGT RAIN  54  51  90 W5        29.80R FOG
SPRINGFIELD      N/A     64  56  75 SE26G37   29.83F
$$



USA.gov is the U.S. government's official web portal to all federal, state and local government web resources and services.